Location: Nashville
(36.1660°N, 86.7840°W)
Time: 20:44:41
(UTC-06:00)

A-11 Canister half - Visible Passes

Search period start: 22 January 2022 00:00
Search period end: 01 February 2022 00:00
Orbit: 1524 x 1684 km, 47.3° (Epoch: 22 January)

Date Brightness Start Highest point End Pass type
(mag) Time Alt. Az. Time Alt. Az. Time Alt. Az.
22 Jan 9.1 17:23:19 10° NW 17:33:06 79° NNE 17:43:11 10° ESE visible
22 Jan 10.2 19:28:57 10° WNW 19:37:42 37° SW 19:46:39 10° SSE visible
23 Jan 10.2 19:07:12 10° WNW 19:16:03 39° SW 19:25:07 10° SSE visible
24 Jan 10.2 18:45:26 10° WNW 18:54:24 42° SW 19:03:35 10° SSE visible
25 Jan 10.2 18:23:41 10° WNW 18:32:45 44° SW 18:42:03 10° SSE visible
26 Jan 10.1 18:01:57 10° WNW 18:11:05 46° SW 18:20:29 10° SSE visible
27 Jan 10.1 17:40:14 10° WNW 17:49:26 49° SW 17:58:54 10° SSE visible
28 Jan 10.1 17:18:31 10° WNW 17:27:47 52° SW 17:37:19 10° SSE visible
28 Jan 11.7 19:29:20 10° WSW 19:31:20 11° WSW 19:33:22 10° SW visible
29 Jan 11.6 19:06:32 10° WSW 19:09:43 12° WSW 19:12:58 10° SW visible
30 Jan 12.0 06:17:25 10° SE 06:17:54 10° ESE 06:18:24 10° ESE visible
30 Jan 11.6 18:44:06 10° W 18:48:07 13° WSW 18:52:10 10° SSW visible
31 Jan 11.6 18:21:51 10° W 18:26:30 14° WSW 18:31:13 10° SSW visible
